Mombasa, Kenya

1:11 PM EAT on January 23, 2018 (GMT +0300)
Mombasa

Weather History for HKMO - July, 2013

Change the Weather History Date:

Tuesday, July 23, 2013

  Actual Average Record
Temperature  
Mean Temperature 76 °F -  
Max Temperature 82 °F 84 °F 85 °F (2012)
Min Temperature 70 °F 67 °F 66 °F (1996)
Cooling Degree Days 11    
Growing Degree Days 26 (Base 50)    
Moisture  
Dew Point 68 °F    
Average Humidity 74    
Maximum Humidity 88    
Minimum Humidity 51    
Precipitation  
Precipitation 0.00 in 0.09 in - ()
Sea Level Pressure  
Sea Level Pressure 30.00 in    
Wind  
Wind Speed 7 mph ()    
Max Wind Speed 20 mph    
Max Gust Speed -    
Visibility 8.4 miles    
Events      
Averages and records for this station are not official NWS values.
T = Trace of Precipitation, MM = Missing Value Source: Averaged Metar Reports

Daily Weather History Graph

Daily Weather History Graph

Search for Another Location

Airport or City:

Trip Planner

Search our weather history database for the weather conditions in past years. The results will help you decide how hot, cold, wet, or windy it might be!

Date:

Astronomy

Jul. 23, 2013 Rise Set
Actual Time 6:30 AM EAT 6:25 PM EAT
Civil Twilight 6:08 AM EAT 6:47 PM EAT
Nautical Twilight 5:42 AM EAT 7:13 PM EAT
Astronomical Twilight 5:17 AM EAT 7:38 PM EAT
Moon 7:11 PM EAT 6:49 AM EAT
Length of Visible Light 12h 39m
Length of Day
11h 55m
Waxing Gibbous, 99% of the Moon is Illuminated
Jul 23
Waxing Gibbous
Jul 29
Last Quarter
Aug 7
New
Aug 14
First Quarter
Aug 21
Full

Hourly Weather History & Observations

Time (EAT) Temp. Heat Index Dew Point Humidity Pressure Visibility Wind Dir Wind Speed Gust Speed Precip Events Conditions
12:00 AM 75.2 °F - 69.8 °F 83% 30.01 in 6.2 mi South 9.2 mph - N/A   Mostly Cloudy
2:30 AM 73.4 °F - 69.8 °F 88% 29.98 in 6.2 mi SSW 4.6 mph - N/A   Scattered Clouds
3:00 AM 73 °F - 69 °F 84% 29.97 in 16 mi South 11.2 mph - -   Partly Cloudy
4:00 AM 73.4 °F - 69.8 °F 88% 29.95 in 6.2 mi South 5.8 mph - N/A   Partly Cloudy
6:00 AM 73.4 °F - 69.8 °F 88% 29.98 in 6.2 mi Calm Calm - N/A   Scattered Clouds
7:00 AM 73.4 °F - 69.8 °F 88% 30.01 in 6.2 mi Calm Calm - N/A   Scattered Clouds
8:00 AM 75.2 °F - 69.8 °F 83% 30.01 in 6.2 mi SW 8.1 mph - N/A   Scattered Clouds
9:00 AM 77 °F - 69 °F 70% 30.04 in 19 mi SSW 8.1 mph - -   Mostly Cloudy
9:00 AM 77.0 °F - 69.8 °F 78% 30.04 in 6.2 mi SSW 8.1 mph - N/A   Mostly Cloudy
10:00 AM 78.8 °F - 66.2 °F 65% 30.04 in 6.2 mi South 12.7 mph - N/A   Mostly Cloudy
11:00 AM 78.8 °F - 66.2 °F 65% 30.04 in 6.2 mi SSE 19.6 mph - N/A   Mostly Cloudy
12:00 PM 78.8 °F - 64.4 °F 61% 30.01 in 6.2 mi South 11.5 mph - N/A   Mostly Cloudy
1:00 PM 80.6 °F 82.7 °F 66.2 °F 61% 30.01 in 6.2 mi SSW 12.7 mph - N/A   Mostly Cloudy
2:00 PM 82.4 °F 85.4 °F 68.0 °F 62% 29.98 in 6.2 mi South 10.4 mph - N/A   Mostly Cloudy
3:00 PM 82 °F - 67 °F 51% 29.95 in 19 mi SSE 10.4 mph - -   Mostly Cloudy
3:00 PM 82.4 °F 84.6 °F 66.2 °F 58% 29.95 in 6.2 mi SSE 10.4 mph - N/A   Mostly Cloudy
5:00 PM 78.8 °F - 68.0 °F 69% 29.95 in 6.2 mi SE 5.8 mph - N/A   Scattered Clouds
6:00 PM 77.0 °F - 68.0 °F 74% 29.95 in 6.2 mi SSE 9.2 mph - N/A   Scattered Clouds
7:00 PM 77.0 °F - 68.0 °F 74% 29.98 in 6.2 mi SSE 5.8 mph - N/A   Partly Cloudy
8:00 PM 75.2 °F - 69.8 °F 83% 30.01 in 6.2 mi Calm Calm - N/A   Scattered Clouds
9:00 PM 75 °F - 68 °F 74% 30.02 in 19 mi Calm Calm - -   Partly Cloudy
9:00 PM 75.2 °F - 68.0 °F 78% 30.01 in 6.2 mi Calm Calm - N/A   Scattered Clouds